Cloud_Cover
9 5 7 41 50 24 5 6 76 81 18 98 30 5 66 25 5 5 5 5 6 50 19 8 96 100 98 99 76 100 56 100 21 5 0 0 100 100 8 0 1 1 73 96 11 94 4 19 20
5 12 3 5 6 5 5 5 32 8 9 76 30 89 68 55 8 6 7 79 25 40 10 5 72 99 16 5 5 75 100 94 2 12 0 0 1 0 0 35 7 1 100 100 14 26 7 47 98
5 6 5 5 4 2 2 9 5 5 76 100 58 17 68 100 99 5 5 99 100 82 22 7 76 100 18 5 16 28 100 12 23 0 0 0 21 0 0 81 6 3 99 100 100 31 6 11 100
90 30 30 100 99 3 0 7 5 5 5 51 88 42 11 82 100 42 5 8 86 62 99 17 26 100 75 5 7 45 22 79 0 30 0 0 29 0 0 96 0 0 34 93 22 0 1 10 100
83 87 14 100 100 74 0 82 5 9 11 69 50 29 6 96 100 99 5 12 48 78 100 90 100 92 6 5 1 100 33 0 0 0 0 0 0 0 0 100 7 0 18 37 99 60 11 38 42
73 100 25 100 100 88 3 36 8 5 5 65 98 17 5 12 100 100 73 14 57 100 100 100 100 84 9 3 2 94 100 59 0 0 54 0 0 0 0 96 15 0 0 21 95 52 0 0 54
5 86 96 100 100 98 69 0 13 5 8 94 12 95 52 75 100 100 100 90 66 99 100 100 100 100 73 0 1 74 64 44 0 0 0 0 0 0 2 94 1 0 0 9 54 0 0 0 0
5 1 100 100 100 100 44 5 6 6 4 5 67 96 100 79 100 100 100 100 88 100 100 100 100 100 100 100 75 100 0 0 5 5 4 0 0 0 42 69 23 0 0 6 1 1 5 5 3
5 0 62 100 100 100 4 1 5 5 5 5 5 5 100 100 100 100 100 100 100 100 100 100 100 100 100 100 100 100 2 1 4 5 5 5 3 5 2 4 69 0 5 4 5 5 5 5 14
0 2 1 100 100 100 76 3 48 45 5 5 2 5 82 100 99 100 100 100 100 100 100 100 100 100 100 100 93 100 71 3 5 5 6 5 13 5 5 45 100 5 5 24 8 5 5 5 5
20 3 43 57 97 100 97 6 5 97 5 5 0 0 5 100 100 100 100 100 100 100 100 100 100 100 100 100 100 100 100 68 5 5 6 6 43 40 39 44 35 5 6 45 47 5 5 5 5
0 0 0 41 1 99 100 54 19 95 74 8 5 0 0 18 100 100 100 100 100 100 100 100 100 100 100 100 100 100 100 100 56 6 31 77 82 87 44 27 76 57 67 70 87 99 48 43 12
0 0 0 3 4 19 100 100 55 100 100 23 5 2 0 0 18 100 100 100 100 100 100 100 100 100 100 100 100 100 100 100 100 74 57 35 95 65 88 55 100 83 61 100 100 100 100 100 78
0 0 0 0 0 2 60 99 72 100 100 100 5 5 0 0 0 44 100 100 100 100 100 100 99 100 100 100 100 100 100 100 100 100 59 40 32 66 82 62 56 71 99 100 100 100 100 100 100
0 4 0 0 0 0 2 36 100 100 100 84 5 5 5 0 0 0 97 100 100 100 100 100 100 100 100 100 100 100 100 100 100 100 98 18 11 12 60 72 100 100 100 100 100 100 100 100 100
4 97 52 2 0 3 4 4 5 100 94 78 18 70 100 6 0 0 0 100 100 100 100 100 100 100 100 100 100 100 100 100 98 100 100 100 66 10 29 73 89 62 91 100 100 100 100 100 100
2 72 100 63 5 0 0 7 33 99 96 98 100 100 100 100 18 0 0 64 100 100 100 100 100 100 100 100 100 100 100 100 100 100 100 100 100 100 94 10 64 69 97 100 100 100 100 100 100
5 6 98 97 67 0 0 6 6 96 88 100 100 100 100 100 100 99 16 0 73 100 100 100 100 100 100 100 100 100 100 100 100 100 100 100 100 100 100 86 73 96 93 100 100 100 100 100 100
5 4 5 86 40 100 15 24 52 19 64 100 100 100 100 100 100 100 100 5 0 84 100 100 100 100 100 100 100 100 100 100 100 100 100 100 100 100 100 100 100 100 100 100 100 100 100 100 100
5 5 5 4 41 100 82 100 62 69 55 100 100 100 100 100 100 98 31 72 12 4 53 100 100 100 100 100 100 100 100 100 100 100 100 100 100 100 100 100 100 100 100 100 100 100 100 100 100
5 5 5 14 5 100 100 100 100 100 100 83 100 100 40 21 59 100 93 23 54 3 0 83 100 100 100 100 100 100 100 100 100 100 100 100 100 100 100 100 100 100 100 100 100 100 100 100 100
7 5 5 5 5 26 100 100 100 50 83 96 96 100 100 100 100 100 100 83 80 64 2 15 94 100 100 100 100 100 100 100 99 100 100 100 100 100 100 100 100 100 100 100 100 100 100 100 100
34 72 5 5 87 6 99 100 99 94 7 74 71 95 100 100 95 79 97 100 100 96 100 75 5 65 100 100 100 100 100 100 100 100 100 100 100 100 100 100 100 100 100 100 100 100 100 100 100
5 21 34 60 67 18 26 100 100 27 12 7 80 24 35 100 97 92 29 97 98 84 33 100 38 10 65 100 100 100 100 100 100 100 100 100 100 100 100 100 100 100 100 100 100 100 100 100 100
7 60 21 5 22 4 1 82 100 100 58 47 33 7 7 16 98 100 69 5 38 99 23 5 54 100 34 32 100 100 100 100 100 100 100 100 100 100 100 99 100 100 100 100 100 100 100 100 100
97 99 84 79 92 31 1 1 52 100 100 100 43 24 6 12 5 33 100 96 24 39 57 66 5 98 98 60 36 90 100 100 100 100 100 100 100 100 100 100 79 100 100 100 100 100 100 100 100
96 100 100 100 76 90 46 94 7 5 65 98 100 100 100 100 68 67 100 100 93 6 87 43 33 19 48 100 58 39 97 100 100 100 100 100 100 100 100 100 100 100 100 100 100 100 100 100 100
83 97 100 100 84 87 10 53 72 75 46 56 100 100 100 100 100 100 100 100 100 55 82 100 99 99 78 6 71 88 79 99 97 73 100 100 100 100 100 100 100 100 97 100 100 100 100 100 100
98 93 100 100 100 92 100 95 100 100 98 100 100 100 100 99 100 100 100 100 100 95 90 100 100 100 98 39 77 98 100 100 100 100 100 100 100 100 100 100 100 100 98 100 100 100 100 100 100
34 23 97 92 84 98 100 44 100 100 100 100 100 100 100 100 100 100 100 100 100 100 100 100 100 100 100 100 100 100 100 95 86 100 100 100 94 100 100 100 100 100 100 100 100 100 100 100 100